{"data":{"norad_id":65817,"epoch":"2026-05-25T04:44:27.232224Z","epoch_age_seconds":68230,"freshness":"FRESH","line1":"1 65817U 25220A   26145.19753741  .00000036  00000+0  50259-4 0  9996","line2":"2 65817  86.4984  51.6205 0001378  65.0666 295.0611 13.24405788 31870","mean_motion":13.24405788,"eccentricity":0.0001378,"inclination_deg":86.4984,"raan_deg":51.6205,"arg_perigee_deg":65.0666,"mean_anomaly_deg":295.0611,"bstar":5.0259e-5,"rev_number":3187,"period_min":108.72800564958,"perigee_km":1166.8983355831,"apogee_km":1168.9780339041,"semimajor_km":7546.0751847436,"source":"CELESTRAK","updated_at":"2026-05-25T13:38:05.700511Z"}}